Hourly Data Report for July 07, 2021

WINDSOR A
ONTARIO
Current Station Operator: NAVCAN

42°16'34.000" N
82°57'19.000" W
189.60 m
6139530
71538
YQG

Download Data

Hourly Data (July 2021)
Hourly Data Report for July 7, 2021
TIME
LST
Temp Definition
°C
Dew Point Definition
°C
Rel Hum Definition
%
Precip. Amount Definition
mm

Wind Dir Definition
10's deg

Wind Spd Definition
km/h
Visibility Definition
km
Stn Press Definition
kPa
Hmdx Definition


Wind Chill Definition


Weather Definition


00:00 22.8 21.2 91 0.0   0 16.1 99.27 31   LegendNANA
01:00 22.2 21.2 94 0.0 17 4 16.1 99.23 31   LegendNANA
02:00 22.2 21.0 93 0.0 24 5 16.1 99.22 31   LegendNANA
03:00 21.8 20.5 92 0.0 22 11 16.1 99.22 30   LegendNANA
04:00 22.1 20.4 90 0.0 23 13 16.1 99.20 30   LegendNANA
05:00 21.4 20.2 93 0.0 23 11 16.1 99.21 29   LegendNANA
06:00 22.1 20.6 91 0.0 24 9 16.1 99.21 30   LegendNANA
07:00 24.1 21.5 85 0.0 24 13 16.1 99.22 33   LegendNANA
08:00 25.8 21.7 78 0.0 25 13 16.1 99.24 35   LegendNANA
09:00 27.7 22.0 71 0.0 23 11 16.1 99.20 37   LegendNANA
10:00 28.8 21.7 65 0.0 25 18 16.1 99.18 38   LegendNANA
11:00 29.6 20.7 58 0.0 23 24 16.1 99.15 38   LegendNANA
12:00 30.4 21.6 59 0.0 24 17 16.1 99.11 39   LegendNANA
13:00 30.4 21.8 60 0.0 24 17 16.1 99.02 40   LegendNANA
14:00 30.2 20.7 56 0.0 23 18 16.1 98.95 38   LegendNANA
15:00 29.0 21.6 64 0.0 23 17 16.1 98.92 38   Rain
16:00 26.6 21.5 73 0.0 24 18 16.1 98.99 35   LegendNANA
17:00 23.7 19.2 76 0.0 3 13 16.1 99.12 31   LegendNANA
18:00 22.3 19.8 85 0.0 8 8 16.1 99.03 30   Rain
19:00 23.0 20.4 85 0.0 7 5 16.1 99.07 31   Rain
20:00 22.5 21.1 92 0.0 11 9 16.1 99.06 31   LegendNANA
21:00 21.8 20.8 94 0.0 13 11 16.1 99.03 30   LegendNANA
22:00 21.7 20.7 94 0.0 13 8 16.1 98.99 30   LegendNANA
23:00 21.7 20.7 94 0.0 17 8 16.1 98.98 30   LegendNANA

Notes on Data Quality.

Legend

  • E = Estimated
  • M = Missing
  • NA = Not Available*
  • [empty] = Indicates an unobserved value
Date modified: